Skip Page Navigation
NASA JPL Caltech
NASA Logo - Jet Propulsion Laboratory + View the NASA Portal
+ Center for Near-Earth Object Studies
JPL Home Earth Solar System Stars & Galaxies Technology
JPL Solar System Dynamics
BODIES ORBITS EPHEMERIDES TOOLS PHYSICAL DATA DISCOVERY FAQ SITE MAP
IMPORTANT: The SSD Announcement email list is now available. Major changes are coming in the near future, including possible hostname and/or URL changes. To be notified of such changes, subscribe to this email list.

Please visit this page for more details.


JPL Small-Body Database Browser
Search: [ help ]  
27355 (2000 DB79)
Classification: Main-belt Asteroid          SPK-ID: 2027355
Ephemeris | Orbit Diagram | Orbital Elements | Mission Design | Physical Parameters | Discovery Circumstances | Close-Approach Data ]

[ show orbit diagram ]
Orbital Elements at Epoch 2458600.5 (2019-Apr-27.0) TDB
Reference: JPL 32 (heliocentric ecliptic J2000)
 Element Value Uncertainty (1-sigma)   Units 
e .1749105441807995 3.0556e-08  
a 2.684593054233767 1.0341e-08 au
q 2.215029422213744 8.3192e-08 au
i 12.59686818695887 3.6414e-06 deg
node 177.9944266464535 1.4145e-05 deg
peri 157.8661551697331 1.7696e-05 deg
M 331.5126575049908 9.1709e-06 deg
tp 2458727.635125600569
(2019-Sep-01.13512560)
4.0834e-05 TDB
period 1606.630917721548
4.40
9.2834e-06
2.542e-08
d
yr
n .2240713757149252 1.2947e-09 deg/d
Q 3.154156686253789 1.215e-08 au
  Orbit Determination Parameters
   # obs. used (total)      2140  
   data-arc span      12850 days (35.18 yr)  
   first obs. used      1984-09-21  
   last obs. used      2019-11-27  
   planetary ephem.      DE431  
   SB-pert. ephem.      SB431-N16  
   condition code      0  
   norm. resid. RMS      .44092  
   source      ORB  
   producer      Otto Matic  
   solution date      2019-Dec-04 01:03:16  

Additional Information
 Earth MOID = 1.21075 au 
 Jupiter MOID = 2.287 au 
 T_jup = 3.319 
[ show covariance matrix ]

Ephemeris | Orbit Diagram | Orbital Elements | Mission Design | Physical Parameters | Discovery Circumstances | Close-Approach Data ]

Physical Parameter Table
Parameter Symbol Value Units Sigma Reference Notes
absolute magnitude H 13.3   n/a MPO347727  
diameter diameter 6.088 km 0.138 urn:nasa:pds:neowise_diameters_albedos::2.0[mainbelt] (http://adsabs.harvard.edu/abs/2011ApJ...741...68M)  
geometric albedo albedo 0.274   0.046 urn:nasa:pds:neowise_diameters_albedos::2.0[mainbelt] (http://adsabs.harvard.edu/abs/2011ApJ...741...68M)  

27355 (2000 DB79)          Discovered 2000-Feb-29 by LINEAR at Socorro
Reference: 20010804/Numbers.arcLast Updated: 2004-04-19

[ show close-approach data ]
Alternate Designations
 2000 DB79 = 1984 SO8 = 1999 BJ22 
Ephemeris | Orbit Diagram | Orbital Elements | Mission Design | Physical Parameters | Discovery Circumstances | Close-Approach Data ]
ABOUT SSD CREDITS/AWARDS PRIVACY/COPYRIGHT GLOSSARY LINKS
FirstGov 2019-Dec-06 03:56 UT
(server date/time)  
NASA Home Page
Site Manager:   Ryan S. Park
Webmaster  Alan B. Chamberlin